[[{"header":{"parameterUnit":"m.s-1","parameterCategory":1,"la1":30.2992,"la2":30.254,"lo1":-89.0895,"lo2":-89.0443,"dy":0.0025,"dx":0.0025,"nx":19,"ny":19,"refTime":"2026-03-20T03:00:00:Z","depth":0,"parameterNumber":2,"parameterNumberName":"U-component_of_WINDS"},"data":[0,0,0,4.1152,4.1158,4.1421,4.1422,4.1759,4.1762,0,0,0,0,0,0,0,0,0,0,0,4.1075,4.1077,4.1152,4.1158,4.1421,4.1422,4.1758,4.1762,0,0,0,0,0,0,0,0,0,0,0,4.1074,4.1077,4.108,4.1159,4.1421,4.1422,4.1757,4.1559,0,0,0,0,0,0,0,0,0,0,4.1303,4.1233,4.1076,4.108,4.1161,4.142,4.1422,4.1549,4.1571,4.164,0,4.1701,0,4.1737,4.1784,4.1786,0,0,0,4.1158,4.1215,4.1285,4.108,4.1163,4.142,4.1302,4.1562,4.1586,4.1669,4.1706,4.1719,4.1742,4.1787,4.1788,4.2181,4.2183,0,0,4.1143,4.1123,4.1268,4.1301,4.1261,4.1294,4.131,4.1577,4.1616,4.1707,4.1726,4.1748,4.1789,4.1791,4.218,4.2182,0,0,0,4.1102,4.1113,4.1176,4.1287,4.1334,4.1301,4.1321,4.1604,4.1626,4.173,4.1752,4.1791,4.1795,4.2178,4.2181,4.2249,0,0,0,4.1093,4.1089,4.117,4.116,4.1329,4.1473,4.1342,4.1608,4.1639,4.175,4.1791,4.1798,4.2176,4.2179,4.2243,4.2284,0,0,0,4.1058,4.1085,4.1123,4.1159,4.1271,4.1469,4.1507,4.1615,4.1652,4.1786,4.1799,4.2174,4.2179,4.2237,4.2275,4.2378,0,0,0,4.1014,4.1183,4.1123,4.1321,4.1268,4.151,4.1505,4.1687,4.181,4.1793,4.2176,4.218,4.2235,4.227,4.2372,4.2458,4.2493,0,0,4.1216,4.1207,4.1324,4.1278,4.1524,4.1471,4.1728,4.1861,4.1894,4.2084,4.2094,4.2245,4.2275,4.2377,4.2703,4.273,0,0,0,4.1381,4.1464,4.1534,4.1649,4.1754,4.1846,4.1942,4.199,4.2151,4.1987,4.2312,4.2331,4.2391,4.2433,4.2457,4.2508,4.22,4.2199,4.2199,4.1637,4.1667,4.1861,4.1922,4.2034,4.2129,4.2221,4.2303,4.2304,4.238,4.2435,4.2629,4.2678,4.2696,4.2749,4.2487,4.2487,4.2487,4.2487,4.1932,4.2053,4.2046,4.2232,4.2262,4.2419,4.2516,4.251,4.2659,4.2591,4.2646,4.2565,4.2725,4.2773,4.2493,4.2492,4.2491,4.2491,4.249,4.2099,4.2162,4.2217,4.2383,4.2508,4.2565,4.2706,4.2731,4.2755,4.2809,4.2868,4.2866,4.2865,4.2836,4.2837,4.2837,4.2838,4.2838,4.2839,4.225,4.231,4.2426,4.2548,4.2622,4.2724,4.2819,4.2893,4.2981,4.2987,4.2988,4.2977,4.2736,4.2672,4.2849,4.2848,4.2846,4.2845,4.2844,4.2532,4.2471,4.265,4.2724,4.2867,4.2987,4.3016,4.3163,4.3228,4.3297,4.3275,4.3094,4.3087,4.3068,4.3015,4.3271,4.3271,4.3271,4.3271,4.267,4.2668,4.2854,4.297,4.3088,4.313,4.3329,4.3403,4.3471,4.3513,4.348,4.3413,4.3393,4.3398,4.3372,4.3323,4.3651,4.3651,4.3651,4.2843,4.2853,4.3017,4.3081,4.3194,4.3289,4.3476,4.3608,4.3673,4.3667,4.3544,4.3528,4.3421,4.3385,4.3374,4.3334,4.3244,0,0]},{"header":{"parameterUnit":"m.s-1","parameterCategory":1,"la1":30.2992,"la2":30.254,"lo1":-89.0895,"lo2":-89.0443,"dy":0.0025,"dx":0.0025,"nx":19,"ny":19,"refTime":"2026-03-20T03:00:00:Z","depth":0,"parameterNumber":3,"parameterNumberName":"V-component_of_WINDS"},"data":[0,0,0,2.2593,2.2596,2.2725,2.2725,2.2886,2.2887,0,0,0,0,0,0,0,0,0,0,0,2.2554,2.2555,2.2593,2.2596,2.2725,2.2725,2.2886,2.2887,0,0,0,0,0,0,0,0,0,0,0,2.2553,2.2555,2.2556,2.2596,2.2725,2.2725,2.2885,2.2789,0,0,0,0,0,0,0,0,0,0,2.2664,2.2628,2.2554,2.2556,2.2597,2.2725,2.2725,2.2784,2.2795,2.2826,0,2.2855,0,2.2874,2.2898,2.2899,0,0,0,2.2596,2.2619,2.2655,2.2556,2.2598,2.2724,2.2667,2.279,2.2802,2.284,2.2858,2.2864,2.2877,2.2899,2.29,2.3081,2.3082,0,0,2.2589,2.2576,2.2647,2.2663,2.2645,2.2662,2.2671,2.2798,2.2815,2.2858,2.2867,2.2879,2.29,2.2901,2.3081,2.3081,0,0,0,2.2568,2.2571,2.2604,2.2656,2.268,2.2666,2.2676,2.281,2.2821,2.2869,2.2881,2.2901,2.2903,2.308,2.3081,2.311,0,0,0,2.2564,2.2559,2.2601,2.2594,2.2677,2.2747,2.2685,2.2812,2.2827,2.288,2.2901,2.2904,2.3079,2.308,2.3108,2.3126,0,0,0,2.2546,2.2557,2.2576,2.2593,2.2649,2.2745,2.2764,2.2816,2.2835,2.2899,2.2905,2.3078,2.308,2.3105,2.3122,2.317,0,0,0,2.2522,2.26,2.2576,2.2668,2.2648,2.2763,2.2763,2.285,2.2908,2.2902,2.3079,2.3081,2.3105,2.312,2.3167,2.3207,2.3223,0,0,2.2614,2.2611,2.2666,2.2648,2.2764,2.2744,2.2864,2.2929,2.2946,2.3035,2.3039,2.3109,2.3122,2.3169,2.3317,2.3329,0,0,0,2.2691,2.273,2.2763,2.2819,2.2871,2.2916,2.2964,2.2988,2.3064,2.299,2.3139,2.3148,2.3176,2.3195,2.3206,2.323,2.309,2.3089,2.3089,2.2803,2.282,2.2912,2.2945,2.2998,2.3046,2.3091,2.313,2.3133,2.3167,2.3194,2.3281,2.3304,2.3312,2.3337,2.3217,2.3217,2.3217,2.3217,2.2938,2.2996,2.2996,2.3085,2.3103,2.3177,2.3225,2.3224,2.3294,2.3263,2.3289,2.3254,2.3325,2.3348,2.3219,2.3219,2.3219,2.3219,2.3218,2.3013,2.3044,2.3072,2.3153,2.3213,2.3243,2.331,2.3323,2.3336,2.3361,2.339,2.3389,2.339,2.3374,2.3374,2.3375,2.3375,2.3375,2.3375,2.308,2.311,2.3166,2.3227,2.3263,2.3313,2.3361,2.3396,2.3439,2.3443,2.3443,2.344,2.333,2.3301,2.338,2.3379,2.3379,2.3378,2.3378,2.321,2.3182,2.3269,2.3305,2.3377,2.3434,2.345,2.3521,2.3552,2.3585,2.3576,2.3492,2.349,2.3482,2.3458,2.3573,2.3573,2.3573,2.3573,2.3273,2.3273,2.3363,2.3421,2.3478,2.3501,2.3595,2.3632,2.3666,2.3685,2.3671,2.364,2.3631,2.3634,2.3623,2.3601,2.375,2.375,2.375,2.3353,2.3359,2.3438,2.3472,2.3528,2.3575,2.3664,2.3728,2.376,2.3757,2.3701,2.3693,2.3645,2.3628,2.3625,2.3607,2.3567,0,0]}]]